| time (UTC) | temp F | wind direction | speed knots | gust knots | rain 1hr in | rain 24hr in | rain mn in | humidity % | barometer mb |
| 20260901085002 | 59 | 275 | 2.6 | 6.1 | 0.00 | 0.01 | 0.01 | 84 | 1020.2 |
| 20260901084501 | 59 | 190 | 0.9 | 8.7 | 0.00 | 0.01 | 0.01 | 86 | 1020.3 |
| 20260901084003 | 59 | 253 | 2.6 | 9.6 | 0.00 | 0.01 | 0.01 | 84 | 1020.1 |
| 20260901083501 | 59 | 240 | 1.7 | 7.0 | 0.00 | 0.01 | 0.01 | 85 | 1020.1 |
| 20260901083100 | 59 | 205 | 1.7 | 8.7 | 0.00 | 0.01 | 0.01 | 85 | 1019.9 |
| 20260901082601 | 59 | 311 | 4.3 | 9.6 | 0.00 | 0.01 | 0.01 | 84 | 1019.9 |
| 20260901082059 | 59 | 296 | 3.5 | 9.6 | 0.00 | 0.01 | 0.01 | 84 | 1019.8 |
| 20260901081613 | 59 | 315 | 3.5 | 9.6 | 0.00 | 0.01 | 0.01 | 86 | 1020.0 |
| 20260901081103 | 59 | 183 | 0.9 | 7.0 | 0.00 | 0.01 | 0.01 | 86 | 1019.6 |
| 20260901080559 | 59 | 171 | 2.6 | 7.0 | 0.00 | 0.01 | 0.01 | 86 | 1019.8 |
| 20260901075600 | 58 | 236 | 2.6 | 9.6 | 0.00 | 0.12 | 0.01 | 88 | 1019.7 |
| 20260901075057 | 58 | 244 | 2.6 | 6.1 | 0.00 | 0.12 | 0.01 | 89 | 1019.7 |
| 20260901074556 | 57 | 204 | 2.6 | 7.8 | 0.00 | 0.12 | 0.01 | 88 | 1019.6 |
| 20260901074055 | 57 | 253 | 1.7 | 7.8 | 0.00 | 0.12 | 0.01 | 89 | 1019.5 |
| 20260901073555 | 57 | 186 | 1.7 | 4.3 | 0.00 | 0.12 | 0.01 | 89 | 1019.5 |
| 20260901073056 | 57 | 252 | 0.9 | 6.1 | 0.00 | 0.12 | 0.01 | 90 | 1019.5 |
| 20260901072558 | 57 | 231 | 1.7 | 5.2 | 0.00 | 0.12 | 0.01 | 90 | 1019.3 |
| 20260901072055 | 57 | 193 | 1.7 | 5.2 | 0.00 | 0.12 | 0.01 | 90 | 1019.4 |
| 20260901071601 | 56 | 220 | 1.7 | 7.8 | 0.00 | 0.12 | 0.01 | 90 | 1019.3 |
| 20260901071053 | 56 | 237 | 2.6 | 7.0 | 0.00 | 0.12 | 0.01 | 90 | 1019.3 |
| 20260901070553 | 56 | 284 | 0.0 | 4.3 | 0.00 | 0.12 | 0.01 | 90 | 1019.3 |
| 20260901070100 | 56 | 268 | 0.9 | 6.1 | 0.00 | 0.12 | 0.01 | 90 | 1019.2 |
| 20260901065554 | 56 | 239 | 1.7 | 7.0 | 0.00 | 0.14 | 0.01 | 90 | 1019.2 |
| 20260901065053 | 56 | 247 | 2.6 | 6.1 | 0.00 | 0.14 | 0.01 | 91 | 1019.3 |
| 20260901064552 | 56 | 285 | 1.7 | 7.0 | 0.00 | 0.14 | 0.01 | 91 | 1019.2 |
| 20260901064051 | 56 | 198 | 1.7 | 5.2 | 0.01 | 0.14 | 0.01 | 91 | 1019.2 |
| 20260901063551 | 56 | 157 | 0.0 | 7.0 | 0.01 | 0.14 | 0.01 | 92 | 1019.0 |
| 20260901063050 | 55 | 236 | 1.7 | 7.0 | 0.01 | 0.14 | 0.01 | 92 | 1019.1 |
| 20260901062549 | 55 | 253 | 1.7 | 6.1 | 0.01 | 0.14 | 0.01 | 92 | 1019.1 |
| 20260901062050 | 55 | 239 | 1.7 | 6.1 | 0.01 | 0.14 | 0.01 | 92 | 1019.1 |
| 20260901061548 | 55 | 272 | 0.9 | 4.3 | 0.01 | 0.14 | 0.01 | 92 | 1019.0 |
| 20260901061047 | 55 | 248 | 1.7 | 6.1 | 0.01 | 0.14 | 0.01 | 92 | 1019.0 |
| 20260901060546 | 55 | 193 | 0.9 | 6.1 | 0.01 | 0.14 | 0.01 | 92 | 1019.0 |
| 20260901060044 | 55 | 200 | 2.6 | 6.1 | 0.01 | 0.14 | 0.01 | 92 | 1019.0 |
| 20260901055543 | 55 | 237 | 1.7 | 7.0 | 0.01 | 0.14 | 0.01 | 91 | 1018.8 |
| 20260901055043 | 55 | 240 | 1.7 | 7.0 | 0.01 | 0.14 | 0.01 | 91 | 1018.8 |
| 20260901054542 | 55 | 202 | 1.7 | 4.3 | 0.01 | 0.14 | 0.01 | 90 | 1018.8 |
| 20260901054042 | 56 | 215 | 1.7 | 7.8 | 0.00 | 0.13 | 0.00 | 89 | 1018.7 |
| 20260901053542 | 55 | 151 | 1.7 | 7.0 | 0.00 | 0.13 | 0.00 | 89 | 1018.7 |
| 20260901053046 | 55 | 235 | 1.7 | 5.2 | 0.00 | 0.13 | 0.00 | 89 | 1018.7 |
| 20260901052541 | 55 | 203 | 0.9 | 6.1 | 0.00 | 0.13 | 0.00 | 89 | 1018.7 |
| 20260901052040 | 55 | 193 | 2.6 | 7.0 | 0.00 | 0.13 | 0.00 | 89 | 1018.7 |
| 20260901051540 | 55 | 252 | 1.7 | 7.0 | 0.00 | 0.13 | 0.00 | 88 | 1018.6 |
| 20260901051038 | 55 | 196 | 1.7 | 7.8 | 0.00 | 0.13 | 0.00 | 88 | 1018.6 |
| 20260901050540 | 55 | 216 | 1.7 | 7.8 | 0.00 | 0.13 | 0.00 | 89 | 1018.5 |
| 20260901050036 | 55 | 251 | 0.9 | 4.3 | 0.00 | 0.13 | 0.00 | 89 | 1018.5 |
| 20260901045536 | 55 | 238 | 1.7 | 6.1 | 0.00 | 0.13 | 0.00 | 89 | 1018.5 |
| 20260901045035 | 55 | 244 | 1.7 | 6.1 | 0.00 | 0.13 | 0.00 | 89 | 1018.4 |
| 20260901044534 | 55 | 292 | 1.7 | 6.1 | 0.00 | 0.13 | 0.00 | 89 | 1018.4 |
| 20260901044036 | 55 | 261 | 2.6 | 5.2 | 0.00 | 0.13 | 0.00 | 89 | 1018.3 |
| 20260901043533 | 55 | 231 | 0.9 | 5.2 | 0.00 | 0.13 | 0.00 | 89 | 1018.4 |
| 20260901043032 | 55 | 267 | 1.7 | 7.0 | 0.00 | 0.13 | 0.00 | 89 | 1018.2 |
| 20260901042531 | 55 | 254 | 1.7 | 7.0 | 0.00 | 0.13 | 0.00 | 89 | 1018.3 |
| 20260901042031 | 55 | 242 | 1.7 | 4.3 | 0.00 | 0.13 | 0.00 | 89 | 1018.3 |
| 20260901041531 | 55 | 258 | 1.7 | 6.1 | 0.00 | 0.13 | 0.00 | 89 | 1018.3 |
| 20260901041031 | 55 | 227 | 1.7 | 6.1 | 0.00 | 0.13 | 0.00 | 89 | 1018.2 |
| 20260901040531 | 55 | 237 | 1.7 | 3.5 | 0.00 | 0.13 | 0.00 | 89 | 1018.1 |
| 20260901040031 | 55 | 212 | 0.0 | 5.2 | 0.00 | 0.13 | 0.00 | 89 | 1018.2 |
| 20260901035529 | 55 | 226 | 1.7 | 5.2 | 0.00 | 0.13 | 0.00 | 88 | 1018.3 |
| 20260901035029 | 55 | 215 | 0.9 | 7.8 | 0.00 | 0.13 | 0.00 | 88 | 1018.1 |
| 20260901034528 | 55 | 237 | 1.7 | 4.3 | 0.00 | 0.13 | 0.00 | 88 | 1018.1 |
| 20260901034028 | 55 | 249 | 0.9 | 7.8 | 0.00 | 0.13 | 0.00 | 88 | 1017.8 |
| 20260901033528 | 55 | 189 | 1.7 | 7.8 | 0.00 | 0.13 | 0.00 | 88 | 1017.9 |
| 20260901033043 | 55 | 234 | 3.5 | 7.0 | 0.00 | 0.13 | 0.00 | 88 | 1017.9 |
| 20260901032527 | 55 | 286 | 2.6 | 7.0 | 0.00 | 0.13 | 0.00 | 88 | 1017.9 |
| 20260901032027 | 55 | 240 | 0.9 | 6.1 | 0.00 | 0.13 | 0.00 | 88 | 1017.8 |
| 20260901031527 | 55 | 225 | 1.7 | 5.2 | 0.00 | 0.13 | 0.00 | 88 | 1017.8 |
| 20260901031025 | 54 | 251 | 0.9 | 5.2 | 0.00 | 0.13 | 0.00 | 88 | 1017.9 |
| 20260901030530 | 54 | 172 | 2.6 | 6.1 | 0.00 | 0.13 | 0.00 | 88 | 1017.8 |
| 20260901030026 | 55 | 216 | 1.7 | 6.1 | 0.00 | 0.13 | 0.00 | 88 | 1017.8 |
| 20260901025523 | 55 | 269 | 1.7 | 6.1 | 0.00 | 0.13 | 0.00 | 88 | 1017.8 |
| 20260901025023 | 55 | 285 | 0.9 | 6.1 | 0.00 | 0.13 | 0.00 | 88 | 1017.7 |
| 20260901024527 | 55 | 270 | 1.7 | 7.0 | 0.00 | 0.13 | 0.00 | 87 | 1017.7 |
| 20260901024022 | 55 | 269 | 2.6 | 7.0 | 0.00 | 0.13 | 0.00 | 87 | 1017.7 |
| 20260901023521 | 55 | 274 | 1.7 | 4.3 | 0.00 | 0.13 | 0.00 | 87 | 1017.7 |
| 20260901023021 | 55 | 235 | 1.7 | 3.5 | 0.00 | 0.13 | 0.00 | 87 | 1017.9 |
| 20260901022520 | 55 | 206 | 1.7 | 3.5 | 0.00 | 0.13 | 0.00 | 87 | 1017.8 |
| 20260901022021 | 55 | 232 | 1.7 | 6.1 | 0.00 | 0.13 | 0.00 | 86 | 1017.8 |
| 20260901021521 | 55 | 251 | 2.6 | 6.1 | 0.00 | 0.13 | 0.00 | 86 | 1017.7 |
| 20260901021021 | 56 | 175 | 1.7 | 6.1 | 0.00 | 0.13 | 0.00 | 86 | 1017.7 |
| 20260901020519 | 56 | 188 | 1.7 | 6.1 | 0.00 | 0.13 | 0.00 | 86 | 1017.7 |
| 20260901020018 | 55 | 229 | 2.6 | 9.6 | 0.00 | 0.13 | 0.00 | 86 | 1017.8 |
| 20260901015519 | 55 | 257 | 0.9 | 6.1 | 0.00 | 0.13 | 0.00 | 86 | 1017.6 |
| 20260901015017 | 55 | 200 | 1.7 | 7.8 | 0.00 | 0.13 | 0.00 | 86 | 1017.7 |
| 20260901014517 | 56 | 254 | 2.6 | 7.8 | 0.00 | 0.13 | 0.00 | 86 | 1017.7 |
| 20260901014017 | 56 | 262 | 1.7 | 7.0 | 0.00 | 0.13 | 0.00 | 86 | 1017.7 |
| 20260901013517 | 56 | 241 | 1.7 | 7.0 | 0.00 | 0.13 | 0.00 | 86 | 1017.6 |
| 20260901013017 | 56 | 244 | 0.9 | 6.1 | 0.00 | 0.13 | 0.00 | 85 | 1017.7 |
| 20260901012516 | 56 | 245 | 1.7 | 6.1 | 0.00 | 0.13 | 0.00 | 85 | 1017.7 |
| 20260901012015 | 56 | 259 | 0.9 | 7.8 | 0.00 | 0.13 | 0.00 | 85 | 1017.7 |
| 20260901011515 | 56 | 271 | 2.6 | 7.8 | 0.00 | 0.13 | 0.00 | 84 | 1017.7 |
| 20260901011016 | 56 | 213 | 0.9 | 6.1 | 0.00 | 0.13 | 0.00 | 84 | 1017.7 |
| 20260901010514 | 56 | 173 | 1.7 | 5.2 | 0.00 | 0.13 | 0.00 | 84 | 1017.7 |
| 20260901010014 | 56 | 242 | 0.9 | 7.8 | 0.00 | 0.13 | 0.00 | 84 | 1017.7 |
| 20260901005513 | 56 | 187 | 0.9 | 5.2 | 0.00 | 0.13 | 0.00 | 83 | 1017.7 |
| 20260901005016 | 56 | 182 | 0.9 | 4.3 | 0.00 | 0.13 | 0.00 | 83 | 1017.6 |
| 20260901004511 | 56 | 211 | 1.7 | 4.3 | 0.00 | 0.13 | 0.00 | 82 | 1017.5 |
| 20260901004013 | 56 | 250 | 0.0 | 6.1 | 0.00 | 0.13 | 0.00 | 82 | 1017.5 |
| 20260901003510 | 56 | 207 | 0.9 | 6.1 | 0.00 | 0.13 | 0.00 | 81 | 1017.5 |
| 20260901003012 | 57 | 288 | 0.9 | 6.1 | 0.00 | 0.13 | 0.00 | 81 | 1017.4 |
| 20260901002510 | 57 | 232 | 0.0 | 3.5 | 0.00 | 0.13 | 0.00 | 80 | 1017.4 |
| 20260901002006 | 57 | 271 | 0.0 | 5.2 | 0.00 | 0.13 | 0.00 | 79 | 1017.3 |
| 20260901001514 | 57 | 245 | 1.7 | 5.2 | 0.00 | 0.13 | 0.00 | 79 | 1017.3 |
| 20260901001004 | 58 | 259 | 1.7 | 5.2 | 0.00 | 0.13 | 0.00 | 78 | 1017.4 |
| 20260901000503 | 58 | 246 | 0.9 | 8.7 | 0.00 | 0.13 | 0.00 | 77 | 1017.4 |
| 20260901000003 | 58 | 267 | 0.9 | 6.1 | 0.00 | 0.13 | 0.00 | 77 | 1017.3 |
| 20260831235501 | 58 | 282 | 2.6 | 6.1 | 0.00 | 0.13 | 0.00 | 77 | 1017.3 |
| 20260831234604 | 59 | 216 | 3.5 | 9.6 | 0.00 | 0.13 | 0.00 | 77 | 1017.4 |
| 20260831234059 | 59 | 249 | 1.7 | 7.8 | 0.00 | 0.13 | 0.00 | 78 | 1017.4 |
| 20260831233600 | 59 | 221 | 2.6 | 7.8 | 0.00 | 0.13 | 0.00 | 77 | 1017.3 |
| 20260831233101 | 59 | 246 | 2.6 | 7.0 | 0.00 | 0.13 | 0.00 | 78 | 1017.4 |
| 20260831232557 | 59 | 176 | 0.9 | 8.7 | 0.00 | 0.13 | 0.00 | 79 | 1017.2 |
| 20260831232057 | 59 | 287 | 1.7 | 8.7 | 0.00 | 0.13 | 0.00 | 79 | 1017.2 |
| 20260831231556 | 59 | 286 | 1.7 | 7.8 | 0.00 | 0.13 | 0.00 | 79 | 1017.3 |
| 20260831231100 | 59 | 305 | 1.7 | 7.0 | 0.00 | 0.13 | 0.00 | 79 | 1017.3 |
| 20260831230555 | 60 | 205 | 1.7 | 6.1 | 0.00 | 0.13 | 0.00 | 79 | 1017.0 |
| 20260831225554 | 60 | 239 | 1.7 | 5.2 | 0.00 | 0.13 | 0.00 | 80 | 1016.9 |
| 20260831225053 | 60 | 260 | 2.6 | 5.2 | 0.00 | 0.13 | 0.00 | 79 | 1017.0 |
| 20260831224552 | 60 | 236 | 0.9 | 5.2 | 0.00 | 0.13 | 0.00 | 79 | 1016.8 |
| 20260831224052 | 61 | 256 | 0.0 | 5.2 | 0.00 | 0.13 | 0.00 | 79 | 1016.9 |
| 20260831223551 | 61 | 206 | 1.7 | 6.1 | 0.00 | 0.13 | 0.00 | 78 | 1016.9 |
| 20260831223050 | 61 | 221 | 1.7 | 6.1 | 0.00 | 0.13 | 0.00 | 78 | 1016.8 |
| 20260831222548 | 61 | 286 | 2.6 | 6.1 | 0.00 | 0.13 | 0.00 | 77 | 1016.8 |
| 20260831222049 | 61 | 261 | 1.7 | 6.1 | 0.00 | 0.13 | 0.00 | 77 | 1016.5 |
| 20260831221549 | 61 | 237 | 1.7 | 6.1 | 0.00 | 0.13 | 0.00 | 77 | 1016.6 |
| 20260831221048 | 61 | 234 | 1.7 | 7.0 | 0.00 | 0.13 | 0.00 | 78 | 1016.6 |
| 20260831220547 | 61 | 269 | 0.0 | 6.1 | 0.00 | 0.13 | 0.00 | 78 | 1016.5 |
| 20260831220055 | 61 | 182 | 0.9 | 6.1 | 0.00 | 0.13 | 0.00 | 77 | 1016.6 |
| 20260831215549 | 61 | 234 | 1.7 | 6.1 | 0.00 | 0.13 | 0.13 | 77 | 1016.4 |
| 20260831215045 | 61 | 209 | 2.6 | 6.1 | 0.00 | 0.13 | 0.13 | 77 | 1016.3 |
| 20260831214547 | 62 | 244 | 1.7 | 6.1 | 0.00 | 0.13 | 0.13 | 76 | 1016.2 |
| 20260831214044 | 62 | 227 | 1.7 | 7.0 | 0.00 | 0.13 | 0.13 | 76 | 1016.1 |
| 20260831213544 | 62 | 221 | 1.7 | 7.0 | 0.00 | 0.13 | 0.13 | 76 | 1016.1 |
| 20260831213046 | 62 | 224 | 0.9 | 5.2 | 0.00 | 0.13 | 0.13 | 76 | 1016.1 |
| 20260831212548 | 62 | 217 | 1.7 | 5.2 | 0.00 | 0.13 | 0.13 | 76 | 1016.1 |
| 20260831212043 | 62 | 259 | 2.6 | 7.8 | 0.00 | 0.13 | 0.13 | 75 | 1016.2 |
| 20260831211544 | 62 | 272 | 1.7 | 7.8 | 0.00 | 0.13 | 0.13 | 75 | 1016.1 |
| 20260831211043 | 62 | 264 | 4.3 | 12.2 | 0.00 | 0.13 | 0.13 | 75 | 1016.2 |
| 20260831210543 | 62 | 238 | 3.5 | 12.2 | 0.00 | 0.13 | 0.13 | 75 | 1016.2 |
| 20260831210042 | 62 | 217 | 0.9 | 7.8 | 0.00 | 0.13 | 0.13 | 75 | 1016.2 |
| 20260831205542 | 62 | 275 | 0.9 | 7.8 | 0.00 | 0.13 | 0.13 | 75 | 1016.0 |
| 20260831205041 | 62 | 221 | 1.7 | 8.7 | 0.00 | 0.13 | 0.13 | 75 | 1016.2 |
| 20260831204553 | 62 | 227 | 2.6 | 9.6 | 0.00 | 0.13 | 0.13 | 75 | 1015.9 |
| 20260831204042 | 62 | 286 | 1.7 | 5.2 | 0.00 | 0.13 | 0.13 | 75 | 1015.9 |
| 20260831203541 | 62 | 223 | 0.9 | 3.5 | 0.00 | 0.13 | 0.13 | 76 | 1015.9 |
| 20260831203055 | 62 | 244 | 1.7 | 3.5 | 0.00 | 0.13 | 0.13 | 76 | 1015.8 |
| 20260831202540 | 62 | 232 | 0.0 | 3.5 | 0.00 | 0.13 | 0.13 | 76 | 1015.7 |
| 20260831202040 | 62 | 221 | 0.9 | 4.3 | 0.00 | 0.13 | 0.13 | 76 | 1015.7 |
| 20260831201540 | 62 | 250 | 1.7 | 4.3 | 0.00 | 0.13 | 0.13 | 75 | 1015.7 |
| 20260831201040 | 62 | 254 | 0.9 | 3.5 | 0.00 | 0.13 | 0.13 | 75 | 1015.8 |
| 20260831200540 | 62 | 233 | 0.9 | 5.2 | 0.00 | 0.13 | 0.13 | 75 | 1015.8 |
| 20260831200044 | 62 | 226 | 1.7 | 5.2 | 0.00 | 0.13 | 0.13 | 75 | 1015.7 |
| 20260831195538 | 63 | 250 | 1.7 | 6.1 | 0.00 | 0.13 | 0.13 | 74 | 1015.7 |
| 20260831195038 | 63 | 202 | 0.9 | 7.0 | 0.00 | 0.13 | 0.13 | 74 | 1015.7 |
| 20260831194542 | 63 | 255 | 3.5 | 7.0 | 0.00 | 0.13 | 0.13 | 74 | 1015.8 |
| 20260831194038 | 63 | 262 | 1.7 | 7.0 | 0.00 | 0.13 | 0.13 | 74 | 1015.6 |
| 20260831193541 | 63 | 223 | 2.6 | 7.8 | 0.00 | 0.13 | 0.13 | 73 | 1015.6 |
| 20260831193038 | 63 | 228 | 1.7 | 7.8 | 0.00 | 0.13 | 0.13 | 74 | 1015.6 |
| 20260831192537 | 63 | 267 | 0.9 | 7.8 | 0.00 | 0.13 | 0.13 | 73 | 1015.6 |
| 20260831192036 | 63 | 254 | 2.6 | 7.8 | 0.00 | 0.13 | 0.13 | 73 | 1015.5 |
| 20260831191537 | 63 | 262 | 1.7 | 6.1 | 0.00 | 0.13 | 0.13 | 73 | 1015.3 |
| 20260831191036 | 63 | 213 | 1.7 | 7.8 | 0.00 | 0.13 | 0.13 | 73 | 1015.4 |
| 20260831190536 | 64 | 248 | 1.7 | 11.3 | 0.00 | 0.13 | 0.13 | 72 | 1015.4 |
| 20260831190052 | 64 | 273 | 3.5 | 9.6 | 0.00 | 0.13 | 0.13 | 72 | 1015.4 |
| 20260831185538 | 64 | 222 | 4.3 | 9.6 | 0.00 | 0.13 | 0.13 | 73 | 1015.4 |
| 20260831185034 | 64 | 244 | 2.6 | 6.1 | 0.00 | 0.13 | 0.13 | 73 | 1015.4 |
| 20260831184534 | 64 | 329 | 2.6 | 13.0 | 0.00 | 0.13 | 0.13 | 73 | 1015.3 |
| 20260831184037 | 64 | 93 | 2.6 | 13.0 | 0.00 | 0.13 | 0.13 | 74 | 1015.5 |
| 20260831183535 | 64 | 240 | 2.6 | 10.4 | 0.00 | 0.13 | 0.13 | 75 | 1015.3 |
| 20260831183037 | 64 | 238 | 0.9 | 6.1 | 0.00 | 0.13 | 0.13 | 75 | 1015.2 |
| 20260831182536 | 64 | 225 | 0.9 | 7.0 | 0.00 | 0.13 | 0.13 | 74 | 1015.3 |
| 20260831182033 | 64 | 249 | 1.7 | 7.0 | 0.00 | 0.13 | 0.13 | 74 | 1015.2 |
| 20260831181541 | 64 | 228 | 1.7 | 6.1 | 0.00 | 0.13 | 0.13 | 74 | 1015.2 |
| 20260831181033 | 65 | 251 | 0.9 | 6.1 | 0.00 | 0.13 | 0.13 | 74 | 1015.1 |
| 20260831180536 | 65 | 263 | 2.6 | 8.7 | 0.00 | 0.13 | 0.13 | 73 | 1014.9 |
| 20260831180035 | 65 | 261 | 3.5 | 8.7 | 0.00 | 0.13 | 0.13 | 74 | 1014.9 |
| 20260831175532 | 65 | 248 | 1.7 | 7.8 | 0.00 | 0.13 | 0.13 | 74 | 1014.8 |
| 20260831175032 | 65 | 235 | 1.7 | 7.8 | 0.00 | 0.13 | 0.13 | 74 | 1014.7 |
| 20260831174534 | 65 | 240 | 1.7 | 7.0 | 0.00 | 0.13 | 0.13 | 74 | 1014.7 |
| 20260831174032 | 65 | 237 | 1.7 | 7.0 | 0.00 | 0.13 | 0.13 | 74 | 1014.7 |
| 20260831173532 | 65 | 251 | 1.7 | 6.1 | 0.00 | 0.13 | 0.13 | 74 | 1014.7 |
| 20260831173031 | 65 | 251 | 1.7 | 6.1 | 0.00 | 0.13 | 0.13 | 73 | 1014.7 |
| 20260831172535 | 65 | 245 | 0.9 | 6.1 | 0.00 | 0.13 | 0.13 | 73 | 1014.5 |
| 20260831172032 | 66 | 191 | 1.7 | 6.1 | 0.00 | 0.13 | 0.13 | 73 | 1014.6 |
| 20260831171533 | 66 | 241 | 0.9 | 3.5 | 0.00 | 0.13 | 0.13 | 72 | 1014.6 |
| 20260831171032 | 66 | 257 | 0.9 | 3.5 | 0.00 | 0.13 | 0.13 | 72 | 1014.4 |
| 20260831170530 | 66 | 273 | 0.0 | 3.5 | 0.00 | 0.13 | 0.13 | 71 | 1014.5 |
| 20260831170037 | 67 | 252 | 0.9 | 6.1 | 0.00 | 0.13 | 0.13 | 70 | 1014.4 |
| 20260831165532 | 67 | 236 | 1.7 | 6.1 | 0.00 | 0.13 | 0.13 | 70 | 1014.3 |
| 20260831165030 | 67 | 252 | 0.0 | 3.5 | 0.00 | 0.13 | 0.13 | 70 | 1014.4 |
| 20260831164529 | 67 | 265 | 0.9 | 3.5 | 0.00 | 0.13 | 0.13 | 70 | 1014.6 |
| 20260831164033 | 68 | 245 | 0.9 | 3.5 | 0.00 | 0.13 | 0.13 | 69 | 1014.5 |
| 20260831163529 | 68 | 248 | 1.7 | 5.2 | 0.00 | 0.13 | 0.13 | 68 | 1014.5 |
| 20260831163029 | 69 | 260 | 1.7 | 5.2 | 0.00 | 0.13 | 0.13 | 67 | 1014.6 |
| 20260831162528 | 69 | 240 | 0.9 | 5.2 | 0.00 | 0.13 | 0.13 | 67 | 1014.4 |
| 20260831162028 | 70 | 229 | 1.7 | 4.3 | 0.00 | 0.13 | 0.13 | 66 | 1014.3 |
| 20260831161530 | 70 | 234 | 1.7 | 4.3 | 0.00 | 0.13 | 0.13 | 65 | 1014.5 |
| 20260831161030 | 70 | 261 | 1.7 | 6.1 | 0.00 | 0.13 | 0.13 | 65 | 1014.5 |
| 20260831160528 | 70 | 254 | 2.6 | 8.7 | 0.00 | 0.13 | 0.13 | 64 | 1014.6 |
| 20260831160040 | 70 | 276 | 2.6 | 8.7 | 0.00 | 0.13 | 0.13 | 64 | 1014.4 |
| 20260831155527 | 71 | 228 | 1.7 | 7.0 | 0.00 | 0.13 | 0.13 | 65 | 1014.4 |
| 20260831155027 | 70 | 219 | 3.5 | 7.0 | 0.00 | 0.13 | 0.13 | 64 | 1014.4 |
| 20260831154527 | 70 | 219 | 1.7 | 7.8 | 0.00 | 0.13 | 0.13 | 64 | 1014.4 |
| 20260831154028 | 70 | 190 | 1.7 | 7.8 | 0.00 | 0.13 | 0.13 | 66 | 1014.4 |
| 20260831153526 | 70 | 209 | 1.7 | 7.8 | 0.00 | 0.13 | 0.13 | 64 | 1014.5 |
| 20260831153046 | 70 | 148 | 2.6 | 7.0 | 0.00 | 0.13 | 0.13 | 64 | 1014.5 |
| 20260831152525 | 71 | 217 | 2.6 | 8.7 | 0.00 | 0.13 | 0.13 | 63 | 1014.6 |
| 20260831152025 | 71 | 257 | 1.7 | 8.7 | 0.00 | 0.13 | 0.13 | 63 | 1014.6 |
| 20260831151526 | 70 | 209 | 2.6 | 8.7 | 0.00 | 0.13 | 0.13 | 65 | 1014.6 |
| 20260831151025 | 71 | 223 | 2.6 | 7.0 | 0.00 | 0.13 | 0.13 | 63 | 1014.7 |
| 20260831150526 | 71 | 186 | 2.6 | 8.7 | 0.00 | 0.13 | 0.13 | 63 | 1014.7 |
| 20260831150032 | 71 | 234 | 3.5 | 8.7 | 0.00 | 0.13 | 0.13 | 62 | 1014.7 |
| 20260831145524 | 71 | 215 | 2.6 | 7.8 | 0.00 | 0.13 | 0.13 | 63 | 1014.6 |
| 20260831145026 | 71 | 258 | 2.6 | 8.7 | 0.00 | 0.13 | 0.13 | 63 | 1014.6 |
| 20260831144524 | 72 | 244 | 2.6 | 8.7 | 0.00 | 0.13 | 0.13 | 63 | 1014.7 |
| 20260831144024 | 71 | 146 | 2.6 | 7.8 | 0.00 | 0.13 | 0.13 | 66 | 1014.7 |
| 20260831143524 | 71 | 194 | 2.6 | 10.4 | 0.00 | 0.13 | 0.13 | 64 | 1014.6 |
| 20260831143022 | 71 | 249 | 3.5 | 8.7 | 0.00 | 0.13 | 0.13 | 64 | 1014.7 |
| 20260831142521 | 71 | 176 | 1.7 | 7.8 | 0.00 | 0.13 | 0.13 | 66 | 1014.7 |
| 20260831142019 | 70 | 250 | 2.6 | 9.6 | 0.00 | 0.13 | 0.13 | 68 | 1014.6 |
| 20260831141522 | 69 | 154 | 2.6 | 9.6 | 0.00 | 0.13 | 0.13 | 69 | 1014.8 |
| 20260831141022 | 68 | 253 | 2.6 | 7.8 | 0.00 | 0.13 | 0.13 | 72 | 1014.7 |
| 20260831140521 | 67 | 243 | 2.6 | 6.1 | 0.00 | 0.13 | 0.13 | 73 | 1014.8 |
| 20260831140019 | 67 | 186 | 0.9 | 6.1 | 0.00 | 0.13 | 0.13 | 76 | 1014.7 |
| 20260831135518 | 67 | 263 | 2.6 | 6.1 | 0.00 | 0.13 | 0.13 | 73 | 1014.7 |
| 20260831135017 | 67 | 220 | 1.7 | 7.0 | 0.00 | 0.13 | 0.13 | 75 | 1014.7 |
| 20260831134518 | 68 | 241 | 2.6 | 7.0 | 0.00 | 0.13 | 0.13 | 75 | 1014.8 |
| 20260831134017 | 68 | 263 | 1.7 | 7.8 | 0.00 | 0.13 | 0.13 | 73 | 1014.5 |
| 20260831133517 | 69 | 273 | 3.5 | 8.7 | 0.00 | 0.13 | 0.13 | 71 | 1014.6 |
| 20260831133016 | 70 | 175 | 4.3 | 8.7 | 0.00 | 0.13 | 0.13 | 71 | 1014.5 |
| 20260831132519 | 70 | 231 | 2.6 | 8.7 | 0.00 | 0.13 | 0.13 | 75 | 1014.5 |
| 20260831132015 | 70 | 213 | 2.6 | 8.7 | 0.00 | 0.13 | 0.13 | 77 | 1014.5 |
| 20260831131516 | 70 | 196 | 3.5 | 7.8 | 0.00 | 0.13 | 0.13 | 79 | 1014.6 |
| 20260831131015 | 69 | 227 | 1.7 | 7.0 | 0.00 | 0.13 | 0.13 | 76 | 1014.5 |
| 20260831130514 | 69 | 238 | 2.6 | 7.8 | 0.00 | 0.13 | 0.13 | 76 | 1014.6 |
| 20260831130014 | 70 | 207 | 2.6 | 7.8 | 0.00 | 0.13 | 0.13 | 78 | 1014.7 |
| 20260831125516 | 70 | 217 | 3.5 | 9.6 | 0.00 | 0.13 | 0.13 | 78 | 1014.6 |
| 20260831125014 | 69 | 214 | 2.6 | 7.0 | 0.00 | 0.13 | 0.13 | 78 | 1014.6 |
| 20260831124513 | 68 | 265 | 3.5 | 7.0 | 0.00 | 0.13 | 0.13 | 78 | 1014.6 |
| 20260831124012 | 68 | 283 | 3.5 | 7.0 | 0.00 | 0.13 | 0.13 | 78 | 1014.6 |
| 20260831123515 | 68 | 214 | 2.6 | 8.7 | 0.00 | 0.13 | 0.13 | 80 | 1014.6 |
| 20260831123015 | 68 | 196 | 3.5 | 7.8 | 0.00 | 0.13 | 0.13 | 81 | 1014.5 |
| 20260831122511 | 67 | 234 | 3.5 | 10.4 | 0.00 | 0.13 | 0.13 | 81 | 1014.6 |
| 20260831122011 | 67 | 279 | 3.5 | 10.4 | 0.00 | 0.13 | 0.13 | 81 | 1014.5 |
| 20260831121521 | 68 | 260 | 3.5 | 10.4 | 0.00 | 0.13 | 0.13 | 79 | 1014.5 |
| 20260831121018 | 69 | 258 | 4.3 | 8.7 | 0.00 | 0.13 | 0.13 | 78 | 1014.5 |
| 20260831120511 | 69 | 185 | 3.5 | 7.8 | 0.00 | 0.13 | 0.13 | 79 | 1014.5 |
| 20260831120028 | 69 | 238 | 2.6 | 7.8 | 0.00 | 0.13 | 0.13 | 82 | 1014.4 |
| 20260831115509 | 68 | 224 | 2.6 | 7.8 | 0.00 | 0.13 | 0.13 | 83 | 1014.4 |
| 20260831115014 | 68 | 235 | 3.5 | 8.7 | 0.00 | 0.13 | 0.13 | 83 | 1014.4 |
| 20260831114507 | 67 | 295 | 3.5 | 12.2 | 0.00 | 0.13 | 0.13 | 82 | 1014.3 |
| 20260831114006 | 67 | 221 | 1.7 | 12.2 | 0.00 | 0.13 | 0.13 | 85 | 1014.4 |
| 20260831113507 | 67 | 267 | 3.5 | 8.7 | 0.00 | 0.13 | 0.13 | 86 | 1014.3 |
| 20260831113005 | 66 | 203 | 2.6 | 8.7 | 0.00 | 0.13 | 0.13 | 87 | 1014.4 |
| 20260831112502 | 66 | 289 | 4.3 | 8.7 | 0.00 | 0.13 | 0.13 | 87 | 1014.4 |
| 20260831112000 | 65 | 198 | 2.6 | 7.0 | 0.00 | 0.13 | 0.13 | 90 | 1014.5 |
| 20260831111602 | 65 | 232 | 2.6 | 8.7 | 0.00 | 0.13 | 0.13 | 90 | 1014.5 |
| 20260831111101 | 65 | 171 | 2.6 | 8.7 | 0.00 | 0.13 | 0.13 | 90 | 1014.6 |
| 20260831110601 | 64 | 288 | 4.3 | 13.0 | 0.00 | 0.13 | 0.13 | 89 | 1014.6 |
| 20260831110058 | 64 | 158 | 4.3 | 13.0 | 0.00 | 0.13 | 0.13 | 89 | 1014.7 |
| 20260831105600 | 64 | 262 | 3.5 | 9.6 | 0.00 | 0.13 | 0.13 | 90 | 1014.6 |
| 20260831105056 | 63 | 191 | 1.7 | 11.3 | 0.00 | 0.13 | 0.13 | 93 | 1014.5 |
| 20260831104556 | 63 | 186 | 3.5 | 11.3 | 0.00 | 0.13 | 0.13 | 91 | 1014.6 |
| 20260831104054 | 63 | 163 | 1.7 | 9.6 | 0.00 | 0.13 | 0.13 | 93 | 1014.6 |
| 20260831103554 | 63 | 152 | 2.6 | 9.6 | 0.00 | 0.13 | 0.13 | 93 | 1014.6 |
| 20260831103053 | 62 | 200 | 1.7 | 7.0 | 0.00 | 0.13 | 0.13 | 93 | 1014.6 |
| 20260831102553 | 62 | 222 | 2.6 | 10.4 | 0.00 | 0.13 | 0.13 | 93 | 1014.6 |
| 20260831102053 | 62 | 151 | 2.6 | 7.0 | 0.00 | 0.13 | 0.13 | 94 | 1014.5 |
| 20260831101604 | 61 | 279 | 2.6 | 8.7 | 0.00 | 0.13 | 0.13 | 95 | 1014.5 |
| 20260831101052 | 61 | 180 | 2.6 | 8.7 | 0.00 | 0.13 | 0.13 | 95 | 1014.6 |
| 20260831095549 | 61 | 186 | 2.6 | 6.1 | 0.00 | 0.13 | 0.13 | 95 | 1014.7 |
| 20260831095048 | 61 | 150 | 1.7 | 6.1 | 0.00 | 0.13 | 0.13 | 95 | 1014.6 |
| 20260831094601 | 61 | 196 | 2.6 | 6.1 | 0.00 | 0.13 | 0.13 | 95 | 1014.7 |
| 20260831091542 | 60 | 252 | 0.9 | 7.0 | 0.00 | 0.13 | 0.13 | 95 | 1014.6 |
| 20260831091043 | 60 | 252 | 1.7 | 7.0 | 0.00 | 0.13 | 0.13 | 95 | 1014.5 |
| 20260831090542 | 60 | 228 | 1.7 | 7.0 | 0.00 | 0.13 | 0.13 | 95 | 1014.5 |
| 20260831090042 | 60 | 191 | 2.6 | 6.1 | 0.00 | 0.13 | 0.13 | 94 | 1014.5 |
| 20260831085542 | 60 | 194 | 0.9 | 6.1 | 0.00 | 0.13 | 0.13 | 94 | 1014.3 |